User: anonymous   Login
Location: Columbia
(38.9520°N, 92.3340°W)
Time: 22:40:45
(UTC-05:00)
Language:

SJ-11-01 - Orbit

View from above orbital plane
View from above orbital plane
View from above satellite
View from above satellite

Ground track
Ground track

The orbit data is extracted from the following two-line orbital elements,

1 36088U 09061A   16122.74887430  .00000117  00000-0  34130-4 0  9998
2 36088  98.1928 170.7477 0012809 108.0409 252.2178 14.59825893344618
Epoch (UTC): 01 May 2016 17:58:22
Eccentricity: 0.0012809
inclination: 98.1928°
perigee height: 684 km
apogee height: 703 km
right ascension of ascending node: 170.7477°
argument of perigee: 108.0409°
revolutions per day: 14.59825893
mean anomaly at epoch: 252.2178°
orbit number at epoch: 34461

The dashed part of the orbit path shows where the satellite is in the earth's shadow,  

DLR